Location: Unspecified
(50.7693°N, 0.0000°E)
Time: 16:26:15
(UTC+00:00)

Transit 2A Rocket - Pass Details

Date: 28 October 2019
Orbit: 594 x 909 km, 66.7° (Epoch: 14 November)

Event Time Altitude Azimuth Distance (km) Brightness Sun altitude
Exits shadow 04:44:05 33° 312° (NW) 1,108 5.5 -19.5°
Maximum altitude 04:44:21 33° 320° (NW) 1,099 5.5 -19.4°
Drops below altitude 10° 04:48:25 10° 25° (NNE) 2,000 7.5 -18.8°
Sets 04:50:49 0° 35° (NE) 2,881 8.5 -18.4°
